GFSNW_700_temp_216.txt.gz
Temp
-7 -5 -3 -2 -2 -3 -2 -1 -1 -2 -2 -4 -4 -4 -4 -3 -3 -1 0 1 1 1 1 2 2 2 1 2 2 1 0 1 1 1 0 0 1 1 1 1 -0 0 1 2
-7 -6 -4 -3 -4 -3 -2 -2 -2 -2 -2 -4 -3 -4 -4 -3 -3 -2 -1 -1 -1 -0 0 0 -0 0 1 1 1 0 1 0 0 -1 -2 -1 -1 -1 -1 -0 -0 -0 0 2
-7 -7 -5 -3 -4 -3 -1 -1 -3 -4 -3 -3 -2 -3 -3 -3 -3 -3 -2 -2 -1 -1 -1 -2 -1 -2 -1 -2 -2 -1 -0 -0 1 3 2 1 -1 -2 -2 -2 -2 -1 -1 -1
-7 -7 -5 -5 -3 -3 -2 -1 -3 -3 -3 -3 -3 -3 -3 -3 -3 -3 -2 -1 -1 0 -2 -2 -2 -2 -2 -3 -4 -3 -2 -1 -2 -2 -3 -2 -2 -2 -3 -3 -4 -3 -2 -2
-7 -6 -6 -5 -3 -3 -3 -2 -2 -3 -0 -3 -3 -2 -3 -3 -3 -2 -2 -2 -0 -1 -2 -1 -1 -2 -2 -2 -5 -5 -3 -3 -5 -5 -4 -4 -5 -5 -4 -4 -5 -4 -4 -4
-7 -7 -6 -5 -4 -5 -3 -2 -2 -2 -2 -3 -2 -2 -2 -3 -3 -2 -2 -1 -2 -2 -2 -2 -2 -3 -3 -3 -5 -5 -5 -4 -6 -6 -6 -6 -6 -5 -5 -5 -5 -5 -5 -5
-8 -7 -6 -5 -4 -4 -3 -3 -2 -2 -3 -2 -1 -2 -2 -2 -2 -2 -2 -2 -3 -3 -3 -3 -4 -4 -4 -5 -5 -6 -5 -6 -7 -6 -7 -5 -5 -5 -6 -6 -6 -7 -7 -7
-8 -7 -6 -6 -5 -4 -4 -3 -2 -2 -2 -2 -2 -2 -3 -3 -3 -3 -3 -3 -3 -3 -4 -4 -6 -7 -7 -7 -7 -7 -7 -7 -7 -7 -6 -5 -7 -7 -7 -7 -6 -7 -8 -8
-7 -7 -7 -6 -5 -4 -4 -3 -3 -2 -2 -2 -1 -1 -2 -2 -3 -4 -4 -4 -4 -5 -5 -5 -7 -7 -7 -8 -8 -7 -7 -7 -6 -8 -7 -5 -6 -7 -7 -7 -7 -7 -8 -8
-7 -7 -6 -5 -5 -4 -5 -4 -3 -3 -3 -2 -2 -3 -3 -4 -4 -5 -6 -6 -7 -6 -7 -8 -7 -7 -7 -7 -8 -9 -9 -9 -8 -8 -7 -7 -7 -8 -8 -8 -7 -8 -8 -9
-8 -7 -6 -6 -4 -4 -5 -4 -3 -3 -3 -3 -5 -5 -3 -4 -4 -5 -6 -7 -8 -8 -7 -8 -9 -8 -8 -7 -7 -9 -8 -9 -9 -9 -9 -8 -8 -8 -9 -8 -8 -9 -9 -9
-7 -6 -6 -6 -5 -4 -5 -4 -4 -4 -4 -4 -5 -5 -5 -5 -5 -5 -7 -7 -7 -8 -7 -8 -8 -8 -9 -8 -8 -9 -8 -8 -8 -8 -8 -8 -8 -9 -9 -9 -9 -9 -9 -10
-7 -6 -6 -6 -5 -5 -5 -5 -5 -4 -5 -6 -7 -7 -7 -6 -7 -7 -6 -7 -7 -7 -7 -8 -8 -8 -8 -9 -8 -9 -9 -8 -8 -8 -9 -8 -9 -9 -9 -9 -9 -9 -10 -10
-7 -7 -6 -6 -5 -6 -6 -5 -5 -6 -6 -8 -8 -8 -8 -8 -9 -8 -8 -8 -8 -8 -8 -8 -8 -8 -8 -9 -9 -8 -9 -8 -9 -10 -10 -10 -9 -9 -9 -9 -10 -10 -10 -10
-9 -8 -8 -6 -7 -8 -7 -7 -8 -7 -6 -8 -9 -10 -9 -9 -9 -9 -9 -9 -8 -8 -8 -8 -8 -8 -9 -9 -9 -10 -9 -9 -10 -10 -10 -10 -11 -10 -10 -10 -10 -10 -10 -9
-10 -9 -10 -10 -9 -9 -8 -9 -8 -8 -8 -8 -10 -11 -11 -10 -9 -9 -8 -9 -9 -9 -9 -9 -9 -9 -10 -10 -10 -10 -10 -10 -11 -10 -11 -10 -10 -10 -10 -10 -10 -10 -9 -9
-9 -8 -8 -9 -9 -9 -8 -8 -8 -9 -8 -8 -11 -12 -11 -10 -9 -9 -9 -9 -9 -9 -9 -10 -10 -10 -10 -11 -11 -10 -10 -10 -10 -10 -10 -10 -10 -11 -11 -11 -10 -10 -10 -10
-9 -9 -9 -8 -8 -8 -8 -8 -8 -9 -8 -8 -10 -12 -11 -10 -10 -10 -10 -9 -9 -9 -10 -10 -11 -11 -12 -11 -10 -11 -11 -10 -10 -10 -10 -11 -11 -11 -11 -10 -10 -10 -10 -10
-9 -9 -9 -9 -8 -8 -8 -9 -9 -9 -8 -8 -9 -12 -12 -11 -10 -10 -10 -10 -10 -10 -11 -12 -12 -12 -11 -9 -10 -10 -11 -10 -11 -11 -11 -11 -11 -11 -11 -10 -10 -10 -11 -11
-9 -9 -9 -9 -9 -9 -9 -9 -9 -9 -8 -8 -9 -9 -10 -11 -10 -10 -10 -11 -11 -12 -12 -12 -11 -12 -10 -9 -9 -10 -11 -11 -11 -11 -11 -11 -11 -11 -11 -10 -10 -11 -11 -11
-9 -9 -8 -9 -9 -9 -9 -9 -9 -10 -10 -10 -9 -10 -9 -10 -10 -10 -11 -12 -12 -12 -11 -12 -11 -11 -10 -10 -9 -9 -10 -10 -11 -11 -11 -11 -11 -11 -11 -11 -11 -11 -11 -11
-9 -9 -9 -10 -10 -9 -10 -10 -10 -10 -11 -11 -11 -10 -10 -11 -11 -11 -11 -11 -12 -11 -12 -12 -11 -10 -9 -9 -10 -9 -10 -10 -10 -11 -11 -10 -11 -11 -11 -11 -11 -12 -12 -12
-9 -9 -10 -10 -10 -10 -10 -11 -11 -11 -11 -11 -11 -11 -11 -11 -11 -11 -11 -12 -12 -12 -12 -11 -10 -9 -10 -10 -10 -10 -10 -10 -10 -11 -11 -11 -11 -11 -12 -12 -12 -12 -12 -12
-10 -10 -11 -11 -11 -11 -11 -12 -11 -11 -11 -11 -11 -11 -11 -11 -11 -11 -12 -12 -12 -12 -11 -11 -10 -10 -10 -10 -10 -10 -11 -11 -11 -11 -11 -11 -11 -12 -12 -12 -13 -13 -13 -13
-10 -11 -11 -11 -11 -11 -11 -11 -12 -12 -12 -12 -11 -11 -11 -11 -12 -12 -12 -12 -12 -11 -11 -10 -10 -10 -10 -10 -10 -10 -11 -11 -11 -11 -12 -12 -12 -12 -12 -13 -13 -13 -13 -13
-11 -11 -12 -12 -12 -12 -12 -12 -12 -12 -12 -12 -12 -11 -11 -11 -12 -12 -12 -12 -11 -11 -10 -10 -10 -10 -10 -10 -11 -11 -11 -11 -12 -12 -12 -12 -13 -13 -13 -13 -13 -13 -14 -14
-12 -12 -12 -12 -12 -12 -12 -12 -12 -12 -12 -12 -12 -11 -11 -12 -12 -12 -12 -11 -10 -11 -10 -11 -11 -11 -11 -11 -11 -11 -12 -12 -12 -12 -12 -12 -13 -13 -14 -14 -14 -14 -13 -13

GFSNW_700_temp_219.txt.gz
Temp
-6 -6 -6 -4 -3 -3 -2 -2 -3 -2 -1 -3 -4 -3 -2 -1 -1 -1 0 2 3 4 5 4 5 5 4 3 3 3 3 3 3 2 3 3 4 3 4 3 3 3 4 5
-6 -6 -7 -6 -5 -4 -3 -3 -3 -2 -3 -3 -3 -3 -3 -2 -1 -1 -0 0 1 2 3 4 4 4 3 3 1 2 2 2 3 2 2 2 2 3 3 3 2 2 3 4
-6 -7 -7 -7 -6 -5 -3 -3 -3 -3 -3 -2 -2 -3 -3 -3 -3 -2 -2 -1 -0 0 1 2 3 2 2 2 1 1 1 1 2 4 5 3 2 2 2 3 0 1 3 3
-6 -6 -7 -7 -7 -5 -4 -4 -4 -4 -3 -3 -2 -3 -3 -3 -3 -3 -2 -1 -1 -1 -1 1 -0 0 -1 0 1 1 -0 -1 0 1 2 1 3 2 2 1 0 1 1 2
-6 -6 -8 -7 -7 -6 -5 -4 -4 -3 -2 -1 -3 -4 -3 -3 -3 -2 -2 -2 -1 -1 -1 0 -0 -0 -2 -1 -1 -3 -3 -2 -1 -1 -1 -1 0 1 1 1 1 -0 -0 -0
-6 -7 -7 -7 -7 -6 -6 -4 -4 -3 -3 -3 -4 -2 -2 -2 -3 -2 -2 -2 -2 -2 -2 -1 -1 -2 -1 -1 -2 -2 -3 -3 -4 -3 -3 -3 -3 -2 -1 -1 -1 -2 -2 -2
-7 -7 -7 -7 -8 -6 -5 -4 -3 -4 -3 -3 -1 -2 -2 -3 -2 -1 -3 -3 -3 -2 -2 -2 -2 -2 -2 -2 -3 -3 -4 -4 -4 -4 -5 -4 -1 -2 -2 -2 -2 -2 -3 -3
-7 -7 -7 -8 -7 -6 -5 -4 -4 -4 -3 -2 -2 -3 -3 -3 -3 -3 -3 -3 -2 -2 -2 -3 -4 -5 -4 -4 -4 -5 -5 -5 -5 -5 -5 -1 -3 -5 -4 -3 -2 -3 -4 -5
-7 -7 -7 -7 -7 -7 -5 -5 -4 -4 -3 -3 -1 -3 -3 -3 -3 -3 -3 -3 -3 -3 -3 -4 -5 -6 -5 -6 -6 -6 -6 -6 -5 -6 -5 -3 -2 -3 -5 -5 -5 -5 -5 -6
-7 -7 -7 -6 -7 -6 -5 -5 -4 -4 -3 -3 -2 -2 -3 -3 -3 -3 -3 -4 -5 -4 -4 -5 -6 -6 -5 -6 -6 -7 -7 -6 -6 -6 -5 -4 -4 -6 -6 -6 -5 -5 -6 -8
-7 -7 -7 -7 -6 -6 -6 -5 -4 -3 -3 -3 -2 -2 -2 -3 -3 -3 -4 -5 -6 -6 -5 -5 -6 -7 -6 -6 -6 -7 -7 -7 -7 -6 -6 -5 -5 -7 -6 -6 -6 -7 -8 -9
-7 -7 -7 -7 -6 -5 -6 -5 -4 -4 -4 -3 -3 -3 -3 -4 -4 -3 -5 -5 -5 -6 -5 -6 -7 -7 -7 -6 -6 -7 -7 -6 -5 -6 -6 -6 -6 -7 -8 -7 -7 -8 -8 -8
-7 -7 -7 -7 -6 -5 -4 -5 -4 -4 -3 -3 -4 -5 -5 -5 -5 -5 -4 -5 -5 -5 -6 -7 -7 -8 -7 -7 -6 -7 -7 -6 -7 -7 -7 -7 -8 -8 -7 -8 -8 -8 -8 -8
-8 -7 -7 -6 -6 -5 -5 -5 -4 -4 -4 -5 -7 -7 -6 -6 -6 -6 -5 -5 -6 -6 -6 -6 -7 -7 -6 -6 -6 -6 -7 -7 -8 -7 -7 -8 -8 -9 -9 -10 -9 -8 -9 -9
-7 -7 -6 -6 -6 -5 -5 -5 -5 -4 -4 -6 -7 -7 -7 -8 -7 -7 -7 -7 -7 -7 -8 -8 -7 -7 -7 -8 -8 -7 -7 -8 -8 -7 -8 -8 -8 -9 -10 -9 -9 -9 -9 -9
-8 -7 -7 -6 -5 -5 -6 -6 -6 -5 -5 -5 -9 -9 -9 -9 -8 -8 -9 -9 -9 -9 -8 -7 -8 -7 -8 -8 -7 -7 -7 -8 -8 -8 -8 -9 -9 -10 -10 -9 -9 -9 -9 -10
-9 -9 -9 -8 -8 -8 -7 -6 -7 -7 -7 -7 -10 -10 -10 -10 -10 -10 -9 -9 -8 -8 -8 -8 -9 -8 -8 -9 -8 -8 -8 -8 -9 -9 -9 -10 -11 -11 -10 -9 -10 -9 -10 -10
-10 -10 -10 -10 -9 -9 -7 -7 -8 -8 -8 -8 -10 -12 -11 -11 -10 -9 -9 -9 -9 -8 -9 -9 -10 -10 -10 -10 -9 -9 -9 -10 -10 -10 -10 -11 -11 -11 -11 -10 -10 -10 -10 -10
-10 -10 -10 -9 -9 -8 -8 -9 -9 -8 -7 -8 -9 -11 -12 -10 -11 -9 -9 -10 -10 -9 -9 -10 -10 -10 -10 -10 -9 -9 -9 -10 -10 -10 -11 -11 -11 -12 -11 -10 -10 -10 -10 -10
-10 -10 -9 -9 -9 -9 -10 -10 -9 -8 -8 -8 -9 -10 -10 -10 -10 -11 -10 -11 -11 -10 -10 -11 -11 -10 -10 -10 -10 -10 -10 -10 -11 -11 -11 -11 -11 -11 -10 -10 -10 -10 -10 -11
-9 -9 -9 -10 -10 -10 -9 -9 -9 -9 -10 -11 -10 -11 -11 -11 -11 -11 -11 -11 -11 -10 -10 -11 -10 -9 -10 -10 -10 -10 -10 -11 -11 -10 -11 -11 -11 -10 -10 -10 -10 -11 -11 -11
-9 -8 -9 -10 -9 -9 -9 -9 -9 -10 -11 -11 -11 -11 -12 -11 -11 -11 -11 -11 -11 -10 -11 -11 -10 -9 -10 -10 -10 -10 -10 -10 -10 -10 -10 -10 -10 -10 -11 -11 -11 -11 -11 -11
-9 -9 -10 -9 -9 -9 -10 -10 -11 -11 -11 -11 -11 -10 -10 -11 -10 -10 -11 -11 -10 -10 -11 -9 -9 -9 -10 -10 -9 -9 -9 -9 -10 -10 -10 -10 -10 -10 -11 -11 -11 -11 -11 -12
-9 -9 -10 -10 -10 -11 -10 -9 -10 -10 -12 -12 -10 -10 -10 -10 -10 -11 -11 -10 -11 -10 -10 -10 -9 -9 -10 -10 -9 -10 -10 -10 -10 -10 -11 -11 -11 -11 -11 -11 -11 -12 -12 -12
-10 -10 -11 -11 -12 -11 -11 -10 -12 -11 -11 -11 -11 -10 -10 -11 -11 -11 -11 -11 -11 -10 -9 -10 -10 -10 -10 -10 -10 -10 -10 -10 -10 -11 -11 -11 -11 -12 -12 -12 -12 -12 -12 -12
-10 -11 -11 -13 -11 -11 -11 -12 -12 -12 -12 -11 -12 -11 -11 -11 -11 -11 -11 -10 -10 -10 -10 -10 -10 -10 -10 -10 -10 -10 -10 -10 -11 -11 -11 -12 -12 -12 -12 -12 -13 -13 -13 -13
-11 -12 -13 -13 -12 -11 -11 -11 -12 -12 -12 -12 -12 -11 -12 -12 -11 -11 -10 -10 -10 -10 -10 -10 -10 -10 -10 -10 -11 -11 -11 -11 -11 -12 -12 -12 -12 -12 -12 -12 -13 -13 -14 -14

GFSNW_700_temp_222.txt.gz
Temp
-6 -6 -6 -6 -7 -7 -7 -5 -3 -3 -2 -3 -3 -2 -1 -2 -0 1 1 2 2 4 6 5 6 5 6 5 6 4 5 5 6 6 5 4 5 5 5 5 5 5 6 6
-6 -7 -7 -6 -7 -7 -6 -6 -4 -3 -3 -3 -3 -3 -3 -2 -1 -1 -1 0 2 3 5 5 5 5 5 5 5 5 5 4 4 5 5 4 4 5 5 5 4 4 4 4
-6 -7 -7 -7 -7 -8 -7 -5 -4 -4 -3 -3 -2 -3 -3 -2 -1 -1 -1 -0 2 2 1 3 3 5 4 4 4 4 4 3 4 6 5 4 3 3 4 4 4 3 3 4
-7 -6 -7 -7 -7 -8 -6 -5 -4 -4 -3 -3 -3 -2 -3 -3 -2 -1 -1 -1 0 1 1 2 2 2 2 3 3 2 1 1 2 3 4 3 3 3 3 4 4 4 3 3
-7 -7 -7 -7 -7 -7 -7 -6 -5 -4 -3 -3 -3 -4 -3 -2 -2 -0 -1 -2 -1 -0 0 2 1 0 -0 1 2 1 -1 -1 -0 1 2 2 -0 2 3 3 4 4 4 2
-7 -7 -7 -7 -7 -7 -7 -8 -5 -4 -3 -3 -3 -3 -2 -2 -2 -1 -1 -1 -1 -1 -0 -0 -0 -0 -1 -0 -0 -1 -2 -1 -1 -1 -1 -0 -1 -0 1 3 3 3 3 2
-7 -7 -7 -7 -7 -7 -6 -5 -6 -4 -4 -4 -3 -2 -1 -3 -2 -1 -2 -2 -2 -2 -1 -1 -1 -1 -1 -1 -1 -1 -1 -2 -3 -2 -2 -3 0 1 0 1 2 2 1 1
-7 -7 -7 -7 -7 -8 -7 -6 -6 -5 -4 -3 -2 -2 -2 -2 -3 -3 -3 -2 -2 -2 -2 -2 -2 -3 -2 -2 -2 -2 -2 -3 -3 -3 -4 -0 -0 -1 -0 -1 -0 -0 -0 -0
-7 -7 -7 -7 -7 -7 -7 -7 -7 -6 -5 -4 -2 0 -3 -3 -3 -2 -2 -3 -2 -2 -2 -2 -3 -4 -4 -4 -4 -4 -4 -4 -3 -4 -3 -2 -0 -0 -2 -2 -2 -1 -1 -1
-7 -7 -7 -7 -7 -7 -7 -7 -7 -5 -4 -3 -4 -3 -3 -3 -3 -3 -2 -3 -3 -3 -3 -3 -4 -4 -4 -4 -5 -5 -5 -4 -4 -5 -4 -3 -2 -3 -4 -3 -2 -2 -3 -4
-7 -7 -7 -7 -7 -7 -7 -7 -5 -6 -5 -4 -3 -4 -3 -3 -3 -2 -3 -3 -4 -4 -4 -4 -4 -4 -5 -5 -5 -4 -5 -5 -5 -5 -5 -4 -3 -4 -4 -4 -4 -4 -4 -4
-7 -7 -7 -7 -7 -7 -8 -7 -6 -5 -5 -4 -3 -3 -3 -3 -3 -2 -3 -3 -3 -4 -4 -5 -4 -5 -6 -6 -6 -6 -5 -4 -5 -4 -4 -4 -4 -4 -5 -5 -5 -5 -5 -6
-7 -7 -8 -8 -8 -7 -7 -7 -7 -5 -4 -4 -4 -3 -3 -3 -3 -3 -3 -4 -4 -4 -4 -4 -5 -5 -6 -6 -6 -6 -6 -6 -6 -6 -5 -5 -5 -5 -6 -6 -6 -7 -6 -6
-8 -8 -7 -8 -7 -7 -7 -7 -6 -5 -5 -4 -5 -4 -4 -4 -4 -5 -4 -4 -4 -5 -5 -5 -5 -5 -6 -6 -5 -5 -6 -6 -6 -6 -6 -6 -6 -6 -7 -7 -7 -6 -7 -7
-7 -7 -8 -7 -7 -7 -6 -6 -6 -6 -4 -5 -6 -6 -6 -5 -5 -6 -5 -5 -5 -5 -6 -6 -6 -6 -7 -7 -6 -6 -6 -6 -6 -6 -6 -6 -7 -7 -8 -9 -9 -8 -8 -8
-8 -7 -7 -7 -7 -7 -6 -6 -5 -5 -5 -5 -8 -8 -8 -7 -7 -6 -6 -6 -6 -6 -6 -7 -8 -7 -8 -8 -7 -6 -6 -6 -6 -7 -7 -7 -7 -8 -8 -9 -9 -10 -8 -8
-8 -8 -8 -7 -7 -6 -6 -6 -5 -5 -5 -5 -9 -9 -9 -8 -8 -8 -8 -8 -8 -8 -8 -8 -8 -8 -7 -7 -7 -6 -6 -7 -7 -7 -7 -7 -8 -9 -10 -10 -10 -9 -9 -9
-9 -9 -9 -8 -8 -7 -7 -6 -6 -6 -7 -7 -9 -10 -10 -10 -9 -9 -9 -9 -9 -9 -9 -8 -9 -7 -7 -7 -7 -7 -7 -8 -8 -8 -8 -8 -9 -9 -10 -10 -10 -10 -10 -10
-11 -10 -10 -10 -9 -9 -9 -9 -9 -9 -8 -8 -10 -10 -10 -10 -10 -10 -10 -9 -9 -9 -8 -8 -8 -8 -7 -7 -7 -8 -8 -8 -9 -9 -9 -9 -10 -10 -10 -10 -10 -10 -10 -10
-12 -12 -11 -11 -11 -11 -11 -11 -9 -10 -9 -9 -9 -10 -10 -10 -11 -10 -9 -9 -9 -9 -9 -9 -9 -9 -8 -8 -8 -9 -9 -9 -10 -10 -10 -10 -11 -11 -11 -10 -10 -10 -10 -10
-10 -9 -9 -10 -10 -9 -9 -9 -9 -9 -10 -9 -10 -9 -10 -11 -10 -10 -9 -10 -10 -9 -9 -9 -9 -9 -7 -8 -9 -9 -9 -9 -10 -10 -10 -10 -10 -11 -10 -10 -10 -10 -9 -9
-9 -8 -9 -9 -9 -8 -8 -8 -9 -9 -10 -10 -10 -11 -10 -10 -10 -9 -10 -10 -10 -9 -10 -10 -9 -9 -9 -9 -9 -9 -9 -9 -10 -10 -10 -10 -11 -10 -10 -10 -10 -10 -10 -10
-9 -9 -10 -9 -9 -9 -9 -9 -10 -10 -10 -10 -10 -10 -10 -10 -10 -10 -9 -9 -10 -10 -10 -9 -9 -9 -9 -9 -9 -9 -10 -10 -10 -10 -10 -10 -10 -10 -10 -10 -10 -10 -11 -11
-10 -9 -9 -10 -10 -10 -9 -8 -10 -9 -9 -10 -9 -10 -10 -10 -9 -10 -9 -10 -10 -10 -9 -9 -9 -9 -9 -9 -10 -10 -10 -10 -10 -10 -10 -10 -10 -10 -10 -10 -11 -11 -11 -11
-9 -9 -10 -11 -11 -10 -10 -10 -10 -11 -11 -10 -10 -10 -10 -10 -10 -10 -10 -10 -10 -9 -9 -9 -8 -9 -9 -9 -10 -10 -10 -10 -10 -10 -10 -10 -10 -10 -11 -11 -11 -11 -11 -12
-10 -11 -11 -11 -10 -10 -10 -11 -11 -11 -11 -11 -11 -11 -10 -10 -10 -10 -10 -10 -9 -9 -9 -9 -9 -9 -10 -10 -11 -10 -10 -10 -10 -10 -11 -11 -11 -11 -11 -11 -12 -12 -12 -13
-12 -12 -12 -12 -11 -11 -11 -10 -11 -11 -11 -11 -11 -10 -11 -11 -10 -10 -10 -9 -9 -9 -9 -9 -10 -10 -10 -10 -10 -10 -10 -10 -10 -11 -11 -11 -11 -11 -12 -12 -12 -12 -13 -13

GFSNW_700_temp_228.txt.gz
Temp
-7 -7 -7 -8 -7 -7 -9 -9 -8 -7 -7 -6 -3 -4 -1 -2 -2 0 1 2 2 3 4 4 5 6 5 5 5 4 4 3 3 5 5 5 6 6 6 5 3 4 4 5
-6 -7 -7 -8 -7 -8 -9 -9 -8 -7 -8 -6 -4 -3 -3 -2 -2 -1 1 1 2 3 3 3 4 5 4 4 5 4 3 2 2 2 4 4 4 5 6 5 5 5 3 4
-6 -7 -7 -7 -6 -8 -9 -9 -9 -8 -8 -6 -4 -4 -4 -3 -3 -2 -0 0 0 2 2 2 2 3 3 4 5 4 4 3 2 3 4 4 3 5 5 4 4 4 5 5
-7 -7 -7 -7 -7 -8 -9 -9 -8 -7 -7 -6 -4 -4 -4 -4 -2 -2 -1 -1 -0 0 1 1 1 3 3 3 4 4 3 3 3 3 4 4 5 4 5 4 4 3 4 4
-7 -7 -7 -7 -8 -8 -9 -9 -7 -7 -6 -6 -5 -4 -4 -4 -3 -2 -2 -1 -0 -0 0 1 1 2 3 3 3 3 3 3 3 3 3 4 4 3 4 4 4 4 4 4
-7 -7 -7 -7 -7 -8 -8 -9 -8 -7 -6 -5 -6 -4 -4 -3 -3 -2 -1 0 -0 -0 -0 0 0 1 2 2 2 3 3 3 2 2 2 1 1 3 4 4 4 4 4 4
-6 -6 -7 -7 -7 -7 -6 -6 -6 -7 -6 -5 -4 -4 -4 -4 -1 -1 -1 -2 -1 -1 -0 -0 -0 -0 1 1 0 0 2 1 -0 -1 -1 -0 2 3 3 4 4 4 3 2
-6 -7 -7 -7 -6 -7 -7 -6 -7 -7 -6 -5 -5 -4 -3 -3 -3 -3 -3 -2 -2 -2 -1 -1 -1 -1 -0 -0 -0 -0 0 -0 -1 -1 -1 1 1 2 3 3 3 4 3 2
-6 -6 -7 -7 -6 -7 -7 -7 -7 -6 -6 -4 -4 -4 -4 -4 -4 -3 -3 -3 -2 -2 -1 -1 -1 -2 -2 -1 -1 -1 -0 -1 -1 -2 -2 -1 1 3 3 3 3 3 3 3
-6 -6 -7 -7 -7 -7 -7 -7 -7 -7 -6 -5 -5 -5 -4 -4 -3 -3 -3 -3 -2 -2 -1 -1 -1 -2 -2 -2 -1 -2 -2 -3 -2 -2 -2 -0 1 1 1 -0 2 2 2 2
-7 -7 -7 -6 -7 -7 -7 -7 -7 -7 -6 -6 -6 -4 -4 -4 -4 -3 -3 -3 -3 -3 -2 -2 -2 -2 -2 -1 -1 -0 -1 -2 -3 -3 -3 -3 1 0 0 2 2 1 1 1
-7 -7 -7 -7 -7 -7 -7 -7 -6 -7 -7 -7 -7 -6 -4 -5 -4 -4 -3 -3 -3 -2 -3 -3 -2 -2 -2 -1 -2 -1 -1 -0 -1 -1 1 1 0 -0 -0 0 0 0 -0 -0
-7 -7 -8 -7 -7 -7 -7 -6 -6 -7 -7 -7 -7 -7 -5 -4 -4 -4 -3 -3 -3 -2 -2 -2 -3 -2 -2 -2 -2 -1 -2 -2 -2 -2 -1 -1 -1 -1 -2 -2 -2 -1 -2 -2
-7 -7 -7 -7 -7 -7 -7 -7 -7 -8 -8 -8 -6 -6 -6 -6 -4 -4 -4 -4 -3 -3 -3 -3 -3 -3 -3 -2 -2 -2 -2 -2 -2 -2 -2 -2 -2 -3 -3 -3 -3 -3 -3 -3
-7 -7 -7 -7 -7 -7 -7 -7 -7 -8 -8 -7 -7 -7 -6 -6 -5 -4 -4 -3 -3 -3 -3 -3 -3 -3 -3 -3 -3 -3 -2 -1 -1 -0 -1 -1 -2 -2 -3 -3 -4 -4 -4 -4
-7 -7 -7 -7 -7 -7 -7 -8 -8 -8 -8 -8 -8 -7 -6 -5 -4 -4 -5 -5 -4 -4 -4 -4 -4 -3 -3 -3 -3 -2 -2 -2 -2 -2 -2 -3 -3 -4 -4 -4 -5 -5 -5 -5
-7 -7 -7 -7 -7 -7 -7 -7 -6 -7 -8 -8 -8 -7 -7 -6 -5 -5 -5 -5 -5 -5 -4 -4 -4 -4 -4 -4 -4 -3 -2 -3 -3 -4 -5 -5 -5 -5 -6 -6 -6 -6 -6 -6
-8 -8 -8 -8 -7 -7 -8 -7 -7 -7 -8 -8 -7 -8 -8 -7 -6 -6 -6 -6 -6 -6 -5 -5 -5 -5 -5 -5 -4 -4 -4 -4 -5 -5 -5 -5 -5 -6 -6 -7 -7 -7 -7 -7
-8 -8 -8 -9 -9 -8 -8 -8 -8 -8 -8 -8 -8 -7 -8 -8 -8 -7 -7 -7 -7 -7 -7 -6 -6 -6 -6 -5 -5 -5 -5 -5 -6 -6 -6 -6 -6 -6 -7 -7 -7 -8 -8 -9
-8 -8 -8 -9 -8 -9 -9 -9 -9 -9 -8 -8 -7 -7 -8 -8 -8 -8 -8 -8 -8 -9 -9 -8 -8 -7 -6 -6 -6 -6 -6 -6 -6 -6 -6 -7 -7 -7 -7 -8 -8 -8 -9 -9
-9 -9 -9 -10 -10 -10 -9 -9 -9 -9 -9 -8 -8 -8 -7 -9 -8 -9 -9 -10 -10 -9 -10 -9 -9 -8 -7 -6 -6 -6 -6 -6 -7 -7 -7 -7 -7 -7 -8 -8 -8 -9 -9 -10
-10 -11 -11 -10 -10 -11 -10 -10 -10 -9 -10 -10 -9 -9 -8 -9 -9 -9 -10 -11 -10 -10 -10 -10 -9 -7 -7 -6 -6 -6 -6 -7 -7 -7 -8 -8 -9 -9 -9 -9 -9 -10 -10 -10
-11 -11 -10 -10 -10 -9 -10 -10 -10 -10 -10 -10 -10 -9 -9 -10 -9 -10 -11 -11 -9 -9 -9 -8 -7 -6 -6 -6 -7 -7 -7 -7 -8 -8 -9 -9 -9 -10 -9 -10 -10 -10 -10 -10
-10 -9 -9 -9 -10 -9 -9 -9 -9 -9 -9 -10 -10 -10 -10 -10 -10 -9 -9 -9 -9 -9 -9 -8 -7 -6 -7 -7 -8 -8 -9 -8 -8 -9 -9 -10 -10 -10 -10 -10 -11 -10 -10 -10
-9 -9 -9 -10 -10 -9 -9 -9 -9 -9 -10 -10 -10 -10 -10 -11 -10 -10 -10 -10 -10 -9 -8 -7 -8 -8 -8 -8 -9 -9 -9 -9 -9 -9 -9 -9 -10 -10 -10 -10 -10 -10 -11 -11
-9 -10 -10 -11 -10 -10 -10 -10 -10 -10 -10 -10 -10 -10 -11 -10 -10 -9 -9 -9 -9 -9 -8 -8 -9 -9 -9 -9 -9 -9 -10 -10 -10 -9 -9 -10 -10 -10 -10 -10 -11 -11 -11 -11
-11 -11 -11 -11 -11 -11 -11 -11 -10 -10 -10 -10 -9 -9 -9 -9 -10 -10 -9 -9 -8 -8 -8 -8 -9 -9 -9 -9 -9 -10 -10 -10 -10 -10 -10 -10 -10 -10 -10 -11 -11 -11 -11 -11

GFSNW_700_temp_231.txt.gz
Temp
-7 -7 -7 -7 -7 -8 -8 -7 -7 -7 -7 -8 -7 -6 -5 -3 -3 -2 0 -0 1 3 3 3 4 4 5 6 4 3 5 4 4 5 5 6 6 6 5 4 3 3 4 5
-8 -8 -7 -8 -8 -8 -8 -7 -7 -8 -7 -8 -7 -6 -5 -4 -4 -2 -2 -1 1 2 3 3 4 4 4 5 4 4 4 3 3 3 4 4 4 4 4 4 5 4 2 4
-7 -7 -7 -7 -8 -8 -8 -7 -8 -9 -8 -7 -7 -7 -5 -4 -4 -3 -2 -0 -1 1 2 4 4 4 4 4 5 5 4 4 3 3 4 4 4 4 4 5 4 5 4 4
-6 -7 -7 -7 -8 -8 -8 -7 -8 -8 -9 -8 -7 -6 -5 -3 -4 -3 -3 -2 -1 0 -0 2 3 3 3 3 3 4 3 2 3 3 3 4 4 5 4 4 4 4 5 4
-8 -8 -8 -8 -8 -8 -8 -8 -9 -8 -6 -6 -7 -6 -6 -5 -4 -3 -2 -2 -1 -1 -1 0 2 2 3 3 3 3 2 1 1 2 2 3 3 4 4 4 4 4 4 4
-7 -7 -7 -7 -8 -8 -7 -7 -8 -6 -5 -7 -7 -7 -6 -4 -4 -3 -2 -0 -1 -2 -1 -0 0 2 2 3 3 3 2 1 1 1 1 1 2 3 4 4 4 4 4 4
-7 -6 -6 -6 -7 -7 -7 -7 -7 -6 -6 -6 -7 -6 -6 -5 -4 -3 -1 -2 -1 -1 -0 -0 0 0 0 1 1 1 2 2 1 1 0 0 2 2 4 5 5 4 4 4
-7 -7 -7 -7 -6 -7 -7 -7 -7 -6 -6 -6 -6 -7 -5 -5 -4 -4 -3 -2 -2 -2 -2 -1 -1 -0 -0 -0 0 0 0 1 -0 -1 -1 1 2 2 3 4 4 4 4 3
-7 -6 -7 -7 -7 -7 -7 -7 -6 -6 -6 -6 -6 -5 -5 -6 -5 -4 -3 -3 -2 -2 -2 -2 -1 -2 -1 -1 -0 -1 -0 -0 -0 -2 -1 0 2 3 3 3 3 3 3 3
-6 -6 -7 -6 -7 -7 -7 -7 -7 -7 -7 -7 -7 -6 -6 -6 -4 -4 -3 -3 -3 -2 -2 -2 -2 -1 -1 -1 -1 -1 -2 -1 -1 -2 -1 1 1 2 3 1 2 4 4 4
-6 -6 -6 -7 -7 -7 -7 -7 -7 -7 -7 -7 -7 -7 -5 -5 -5 -4 -3 -3 -3 -2 -3 -3 -2 -2 -1 -1 -1 -0 -0 -2 -3 -2 -2 -1 1 1 1 3 4 3 4 4
-6 -7 -7 -7 -7 -7 -7 -7 -7 -7 -8 -7 -7 -6 -5 -5 -4 -5 -4 -3 -3 -3 -3 -3 -2 -2 -2 -1 -2 -1 -1 -0 -1 -1 -0 1 1 2 2 2 2 2 2 2
-6 -7 -7 -7 -7 -8 -8 -7 -7 -8 -8 -8 -7 -7 -6 -5 -4 -5 -4 -4 -3 -3 -2 -2 -2 -2 -2 -1 -1 -0 -2 -1 -1 -1 -0 1 1 1 0 0 0 0 0 0
-7 -7 -7 -7 -7 -7 -7 -7 -7 -8 -8 -8 -7 -7 -7 -7 -6 -4 -4 -4 -3 -3 -3 -3 -3 -2 -2 -2 -1 -1 -1 -2 -1 -1 -1 -1 -0 0 -1 -1 -1 -1 -1 -1
-7 -7 -7 -7 -7 -7 -7 -7 -7 -8 -8 -8 -7 -7 -7 -6 -6 -5 -5 -5 -5 -4 -4 -4 -3 -3 -3 -2 -2 -1 -1 -0 -0 0 1 0 0 -1 -1 -2 -2 -2 -2 -3
-7 -7 -8 -7 -7 -7 -7 -7 -7 -7 -7 -8 -8 -7 -7 -5 -6 -5 -5 -5 -4 -4 -3 -4 -3 -3 -3 -3 -2 -1 -0 -1 -1 -1 -1 -1 -2 -2 -2 -3 -3 -4 -4 -5
-7 -7 -7 -7 -7 -7 -7 -7 -7 -8 -8 -8 -8 -8 -7 -6 -7 -6 -5 -5 -4 -4 -4 -4 -4 -4 -3 -3 -3 -1 -1 -1 -2 -2 -2 -3 -3 -3 -4 -4 -6 -6 -6 -6
-7 -7 -7 -7 -7 -7 -8 -8 -7 -7 -7 -8 -8 -8 -7 -7 -7 -6 -6 -5 -5 -5 -4 -4 -4 -4 -4 -4 -2 -2 -2 -2 -2 -3 -3 -3 -3 -4 -5 -5 -6 -7 -7 -7
-8 -7 -8 -8 -8 -7 -8 -7 -8 -8 -8 -8 -8 -8 -8 -7 -7 -7 -7 -6 -7 -6 -6 -5 -5 -5 -4 -3 -3 -2 -3 -3 -3 -4 -4 -4 -5 -5 -6 -6 -7 -7 -7 -7
-8 -8 -8 -8 -8 -8 -8 -8 -9 -9 -8 -8 -7 -7 -7 -7 -7 -7 -7 -7 -6 -7 -6 -6 -6 -6 -4 -3 -3 -3 -3 -4 -4 -4 -5 -5 -6 -6 -6 -6 -7 -7 -7 -8
-9 -9 -9 -9 -9 -9 -9 -9 -9 -9 -9 -8 -8 -8 -7 -8 -8 -8 -8 -8 -8 -8 -9 -7 -8 -6 -5 -5 -5 -4 -4 -5 -5 -5 -5 -5 -5 -6 -6 -7 -7 -8 -8 -9
-9 -9 -9 -9 -9 -9 -9 -9 -9 -9 -9 -9 -8 -8 -8 -8 -8 -9 -9 -9 -9 -9 -9 -8 -8 -6 -5 -5 -5 -5 -5 -6 -6 -6 -7 -7 -7 -7 -7 -8 -8 -9 -9 -10
-10 -10 -10 -10 -10 -10 -10 -10 -10 -10 -10 -8 -8 -9 -8 -9 -9 -9 -9 -10 -10 -9 -10 -9 -7 -6 -6 -6 -6 -6 -6 -6 -7 -7 -7 -7 -8 -8 -8 -9 -9 -9 -10 -10
-11 -11 -11 -10 -10 -10 -10 -9 -9 -8 -8 -8 -9 -9 -9 -9 -9 -9 -10 -10 -10 -10 -10 -8 -6 -6 -6 -6 -7 -7 -7 -7 -7 -7 -8 -8 -9 -9 -9 -10 -10 -10 -10 -10
-10 -9 -9 -10 -10 -9 -9 -9 -9 -10 -10 -10 -10 -9 -10 -10 -10 -10 -10 -10 -10 -9 -8 -7 -7 -7 -7 -7 -7 -8 -8 -8 -8 -8 -9 -10 -10 -10 -10 -10 -10 -10 -10 -10
-9 -9 -9 -10 -10 -10 -9 -10 -10 -10 -10 -10 -10 -10 -10 -10 -10 -9 -9 -9 -8 -8 -8 -7 -7 -7 -7 -8 -8 -9 -9 -9 -9 -9 -9 -9 -10 -10 -10 -10 -10 -10 -10 -10
-10 -10 -10 -10 -10 -10 -10 -10 -10 -10 -10 -10 -11 -10 -10 -10 -10 -9 -9 -8 -8 -8 -7 -7 -8 -8 -8 -9 -9 -9 -9 -10 -10 -10 -10 -10 -10 -10 -10 -10 -10 -11 -11 -11

GFSNW_700_temp_237.txt.gz
Temp
-6 -6 -6 -7 -8 -8 -8 -9 -8 -7 -7 -8 -7 -7 -7 -5 -5 -5 -5 -5 -5 -3 -3 -2 -1 0 2 3 2 2 3 4 4 4 4 5 6 8 5 5 5 4 5 7
-6 -7 -7 -7 -8 -8 -9 -9 -8 -7 -8 -8 -7 -8 -7 -6 -7 -5 -5 -5 -5 -3 -3 -3 -1 -0 1 2 3 2 2 3 3 3 3 3 3 4 5 5 6 6 5 7
-6 -7 -7 -8 -9 -9 -9 -9 -8 -8 -8 -7 -7 -7 -7 -7 -6 -6 -6 -5 -4 -5 -3 -3 -2 -0 -0 2 2 3 2 2 3 4 5 4 3 3 4 4 4 5 6 6
-6 -7 -7 -7 -8 -8 -9 -9 -8 -8 -7 -8 -7 -7 -7 -7 -7 -6 -5 -5 -5 -4 -3 -4 -2 -1 -1 1 2 2 2 2 2 2 4 5 5 4 5 3 5 4 6 6
-6 -6 -7 -7 -8 -8 -8 -9 -9 -8 -7 -7 -7 -7 -7 -8 -7 -7 -5 -5 -4 -4 -4 -4 -3 -2 -1 0 1 2 2 2 2 1 2 2 3 4 4 5 5 4 4 6
-6 -6 -7 -7 -7 -7 -7 -7 -9 -9 -9 -9 -8 -8 -6 -6 -6 -7 -6 -4 -3 -4 -4 -2 -1 -2 -1 -0 1 2 2 2 1 1 1 1 1 3 3 4 4 5 4 5
-6 -6 -6 -7 -7 -7 -7 -7 -8 -9 -9 -8 -8 -7 -6 -6 -6 -5 -4 -4 -5 -3 -4 -4 -3 -4 -2 -2 -0 0 1 2 1 1 1 0 2 3 3 4 3 4 5 4
-6 -7 -7 -7 -7 -7 -8 -8 -8 -8 -9 -8 -8 -8 -7 -6 -6 -7 -5 -5 -4 -4 -5 -5 -4 -4 -3 -2 -2 -1 -1 1 0 -0 -1 3 3 3 4 4 5 5 5 5
-6 -6 -6 -7 -8 -8 -8 -7 -7 -8 -8 -9 -6 -7 -7 -6 -7 -7 -6 -5 -5 -5 -5 -5 -4 -3 -2 -2 -2 -1 -2 -1 -1 -1 -0 1 3 3 3 4 4 5 6 6
-7 -6 -7 -7 -7 -8 -8 -8 -8 -8 -8 -8 -8 -8 -7 -6 -7 -6 -5 -5 -7 -6 -5 -6 -3 -3 -2 -2 -2 -2 -2 -2 -1 -1 -1 1 2 3 3 2 4 5 5 6
-6 -6 -6 -7 -7 -7 -8 -7 -7 -8 -8 -8 -8 -7 -7 -6 -7 -7 -5 -7 -7 -7 -7 -5 -4 -3 -2 -2 -2 -1 -1 -1 -2 -2 -1 1 2 2 3 4 5 5 5 5
-6 -6 -6 -7 -7 -7 -7 -7 -8 -8 -8 -8 -8 -8 -7 -6 -5 -5 -7 -6 -6 -6 -7 -6 -3 -3 -2 -2 -2 -1 -1 -0 -0 -1 1 1 2 2 3 3 3 3 4 4
-6 -6 -6 -5 -6 -7 -7 -8 -8 -8 -8 -8 -8 -8 -7 -7 -7 -6 -7 -6 -6 -6 -6 -6 -5 -3 -2 -2 -0 -0 -1 -1 -1 -1 0 1 1 1 1 2 2 2 2 2
-7 -7 -7 -7 -6 -7 -7 -8 -8 -8 -8 -8 -8 -8 -7 -8 -7 -7 -7 -7 -6 -7 -7 -7 -5 -3 -3 -2 -0 -0 -0 -1 -1 -1 -0 1 0 0 1 0 1 1 1 1
-7 -7 -7 -7 -7 -8 -8 -8 -8 -8 -7 -8 -8 -8 -7 -7 -7 -7 -7 -7 -7 -7 -7 -7 -6 -4 -4 -2 -2 -1 -0 -0 -0 1 1 -0 -0 -0 -0 -0 -0 -0 -0 -0
-7 -7 -7 -7 -7 -7 -7 -7 -8 -8 -8 -8 -8 -7 -7 -7 -7 -7 -7 -8 -7 -7 -6 -6 -6 -4 -3 -3 -2 -0 1 0 -1 -1 -2 -2 -1 -1 -1 -1 -1 -1 -1 -1
-7 -7 -7 -7 -7 -7 -8 -7 -7 -8 -7 -8 -8 -8 -7 -7 -7 -6 -7 -7 -6 -7 -7 -6 -4 -4 -4 -3 -2 -1 -0 -1 -2 -1 -1 -2 -1 -1 -1 -1 -1 -1 -1 -1
-7 -7 -7 -7 -7 -7 -7 -7 -7 -8 -8 -8 -8 -7 -7 -6 -7 -8 -8 -6 -7 -7 -7 -6 -5 -4 -4 -4 -3 -3 -2 -1 -2 -1 -1 -1 -2 -2 -2 -1 -1 -1 -2 -3
-8 -8 -8 -7 -7 -8 -7 -8 -7 -7 -8 -8 -7 -7 -6 -7 -8 -8 -7 -7 -7 -7 -7 -6 -6 -5 -5 -3 -2 -2 -1 -1 -1 -2 -2 -2 -2 -2 -2 -2 -2 -2 -3 -3
-8 -8 -8 -8 -8 -8 -7 -8 -8 -8 -7 -8 -7 -7 -7 -7 -8 -8 -8 -8 -7 -7 -6 -6 -6 -5 -4 -3 -3 -2 -2 -2 -2 -2 -2 -2 -2 -2 -3 -3 -3 -4 -4 -4
-8 -8 -8 -8 -8 -8 -8 -8 -8 -8 -8 -8 -7 -7 -7 -8 -8 -8 -8 -7 -7 -7 -6 -7 -6 -4 -3 -3 -3 -3 -3 -3 -2 -3 -4 -4 -4 -4 -4 -4 -5 -5 -6 -6
-8 -8 -8 -8 -9 -8 -8 -8 -8 -8 -8 -8 -7 -7 -8 -8 -8 -8 -8 -8 -8 -8 -7 -7 -5 -3 -3 -3 -4 -4 -4 -3 -3 -4 -4 -5 -5 -5 -5 -7 -7 -7 -8 -9
-9 -9 -9 -9 -9 -8 -8 -9 -9 -8 -7 -7 -7 -7 -9 -9 -9 -9 -8 -8 -8 -8 -8 -7 -5 -4 -3 -3 -5 -5 -5 -5 -5 -5 -6 -6 -6 -6 -7 -7 -8 -9 -8 -8
-10 -10 -9 -9 -9 -9 -9 -8 -8 -8 -8 -8 -8 -9 -10 -9 -9 -9 -8 -9 -9 -9 -9 -7 -5 -5 -3 -4 -6 -6 -5 -6 -6 -7 -7 -7 -7 -7 -7 -8 -8 -8 -8 -8
-11 -10 -10 -9 -9 -9 -9 -9 -9 -9 -9 -9 -9 -10 -9 -9 -9 -9 -9 -10 -10 -9 -7 -7 -6 -6 -6 -6 -6 -7 -6 -7 -7 -7 -7 -7 -7 -7 -7 -8 -8 -8 -9 -9
-10 -10 -10 -9 -9 -9 -9 -9 -9 -9 -9 -10 -10 -10 -9 -9 -9 -10 -10 -10 -9 -8 -7 -7 -7 -7 -7 -7 -7 -7 -7 -8 -8 -8 -8 -8 -7 -8 -8 -9 -9 -9 -10 -10
-11 -10 -11 -11 -10 -10 -10 -10 -9 -10 -11 -10 -10 -10 -10 -10 -10 -10 -10 -9 -8 -7 -7 -7 -8 -9 -9 -9 -9 -9 -9 -8 -8 -8 -8 -8 -8 -9 -9 -9 -10 -10 -10 -10